Terug naar catalogus

SL-8 R/B

ActiefLEO
NORAD 12115·ROCKET BODY·🇷🇺 Russia

Gelanceerd Dec 23, 1980 vanaf Plesetsk Cosmodrome

Loading…

Volgende Passages (komende 24 uur)

TLE

VersSource: Space-Track

Epoch: Sep 14, 2026, 09:48 UTC

1 12115U 80102J   26257.40863112 -.00000100  00000-0 -53243-3 0  9991
2 12115  73.9881  56.9070 0019713 174.4711 210.9940 12.52313719 90447

Volg SL-8 R/B in realtime met AllMySat

Download on the App Store